#timestamp,LO_Frequency,Hit,StdDev 
1513270815.7,286046985.9,P
1513270835.6,286046987.4,P
1513270855.4,286046984.2,Y
1513270875.2,286046992.1,P
1513270895.1,286046991.4,P
1513270896.0,286046991.4,P
1513270915.8,286046988.1,Y
1513270935.6,286046996.4,P
1513270955.5,286046989.4,P
1513270975.3,286046986.2,P
1513270995.1,286046980.9,Y
1513271015.9,286046987.7,P
1513271035.7,286046988.6,P
1513271055.5,286046992.6,P
1513271075.4,286046990.2,Y
1513271095.2,286046995.0,P
1513271115.0,286046993.9,N
1513271115.9,286046993.9,N
1513271135.8,286046993.0,Y
1513271155.6,286047000.6,P
1513271175.4,286047003.8,N
1513271195.3,286047001.9,N
1513271215.1,286046998.6,N
1513271235.8,286046997.1,N
1513271255.7,286046991.8,N
1513271275.5,286046993.0,N
1513271295.3,286046996.3,N
1513271315.2,286046992.2,N
1513271335.9,286046993.3,N
1513271355.7,286046992.7,N
1513271375.6,286046986.5,Y
1513271395.4,286046989.2,P
1513271415.2,286046993.0,N
1513271435.1,286046991.7,N
1513271436.0,286046991.7,Y
1513271455.8,286046998.5,P
1513271475.6,286046995.3,N
1513271495.5,286046993.4,N
1513271515.3,286046995.7,N
1513271535.1,286046997.2,N
1513271555.9,286046995.7,N
1513271575.7,286046997.4,N
1513271595.5,286046999.2,N
1513271615.3,286047005.5,N
1513271635.2,286047004.8,N
1513271655.0,286047004.1,N
1513271655.9,286047004.1,N
1513271675.7,286046998.2,N
1513271695.6,286046999.4,N
1513271715.4,286047001.7,N
1513271735.2,286046999.0,N
1513271755.1,286046997.1,N
1513271756.0,286046997.1,N
1513271775.8,286046994.8,N
1513271795.6,286046990.6,N
1513271815.5,286046992.5,N
1513271835.3,286046995.9,N
1513271855.1,286046992.1,N
1513271875.9,286046995.4,N
1513271895.7,286046993.3,N
1513271915.5,286046988.5,N
1513271935.3,286046992.7,N
1513271955.2,286046988.2,N
1513271975.0,286046985.6,Y
1513271975.9,286046985.6,P
1513271995.8,286046989.6,N
1513272015.6,286046992.6,N
1513272035.4,286046991.5,N
1513272055.3,286046985.9,Y
1513272075.1,286046991.0,P
1513272076.0,286046991.0,P
1513272095.8,286046992.7,P
1513272115.7,286046991.0,Y
1513272135.5,286046998.7,P
1513272155.3,286046996.6,N
1513272175.2,286046998.0,N
1513272195.9,286047003.0,N
1513272215.7,286047004.5,N
1513272235.5,286047001.3,N
1513272255.4,286047005.5,N
1513272275.2,286047003.8,N
1513272295.0,286047003.7,N
1513272295.9,286047003.7,N
1513272315.8,286047007.1,N
1513272335.6,286047008.8,N
1513272355.4,286047008.6,N
1513272375.3,286047009.8,N
1513272395.1,286047011.4,N
1513272396.0,286047011.4,N
1513272415.8,286047013.3,N
1513272435.7,286047021.5,Y
1513272455.5,286047013.5,P
1513272475.3,286047009.7,N
1513272495.2,286047012.0,P
1513272515.9,286047013.9,Y
1513272535.7,286047005.4,P
1513272555.6,286047007.1,P
1513272575.4,286047007.4,P
1513272595.2,286047006.7,Y
1513272615.1,286046999.4,P
1513272616.0,286046999.4,N
1513272635.8,286046998.5,N
1513272655.6,286047002.8,N
1513272675.5,286047002.0,N
1513272695.3,286047001.0,N
1513272715.1,286047001.4,N
1513272735.9,286047003.6,N
1513272755.7,286047003.0,N
1513272775.5,286047003.4,N
1513272795.3,286047001.4,N
1513272815.2,286047003.5,N
1513272835.0,286047004.0,N
1513272835.9,286047004.0,N
1513272855.7,286047002.3,N
1513272875.6,286047002.7,N
1513272895.4,286047004.3,N
1513272915.2,286047004.0,N
1513272935.1,286046998.3,N
1513272936.0,286046998.3,N
1513272955.8,286046998.8,N
1513272975.6,286046998.9,N
1513272995.5,286047000.9,N
1513273015.3,286046999.3,N
1513273035.1,286046997.1,N
1513273055.8,286046999.3,N
1513273075.7,286047000.3,N
1513273095.5,286047000.5,N
1513273115.3,286046998.2,N
1513273135.2,286046996.4,N
1513273155.0,286046993.9,N
1513273155.9,286046993.9,N
1513273175.7,286046993.9,N
1513273195.6,286046992.1,N
1513273215.4,286046995.2,N
1513273235.2,286046997.7,N
1513273255.1,286046999.2,N
1513273256.0,286046999.2,N
1513273275.8,286046998.3,N
1513273295.6,286046994.9,N
1513273315.5,286046996.7,N
1513273335.3,286046996.8,N
1513273355.1,286046998.0,N
1513273375.9,286046993.6,N
1513273395.7,286046993.1,N
1513273415.5,286046988.9,Y
1513273435.4,286046992.6,P
1513273455.2,286046990.9,P
1513273475.0,286046991.4,N
1513273475.9,286046991.4,Y
1513273495.8,286047004.3,P
1513273515.6,286047006.2,N
1513273535.4,286047004.6,N
1513273555.3,286047003.8,N
1513273575.1,286047001.8,N
1513273576.0,286047001.8,N
1513273595.8,286047001.7,N
1513273615.7,286047000.7,N
1513273635.5,286047000.1,N
1513273655.3,286047000.0,N
1513273675.1,286046998.3,N
1513273695.9,286046997.4,N
1513273715.7,286047002.1,N
1513273735.5,286047002.3,N
1513273755.4,286046998.6,N
1513273775.2,286046999.0,N
1513273795.0,286046998.6,N
1513273795.9,286046998.6,N
1513273815.8,286047002.3,N
1513273835.6,286046999.8,N
1513273855.4,286047000.5,N
1513273875.3,286046999.2,N
1513273895.1,286046996.8,N
1513273896.0,286046996.8,N
1513273915.8,286046997.8,N
1513273935.7,286046993.7,N
1513273955.5,286046995.9,N
1513273975.3,286046991.8,N
1513273995.1,286046995.2,N
1513274015.9,286046992.6,N
1513274035.7,286046991.1,N
1513274055.5,286046988.8,Y
1513274075.4,286046990.4,P
1513274095.2,286046997.1,N
1513274115.0,286046996.1,N
1513274115.9,286046996.1,N
1513274135.8,286046991.7,N
1513274155.6,286046993.8,N
1513274175.4,286046994.6,N
1513274195.3,286046998.0,N
1513274215.1,286046994.1,N
1513274216.0,286046994.1,N
1513274235.8,286046991.3,Y
1513274255.7,286046993.7,P
1513274275.5,286046991.7,P
1513274295.3,286046992.2,P
1513274315.2,286046995.6,Y
1513274335.9,286046999.7,P
1513274355.7,286047005.7,N
1513274375.6,286047007.2,N
1513274395.4,286047005.3,N
